When you browse on this site, cookies collect data to enhance your experience and personalize the content and advertising you see.
Visit our Privacy Policy to learn more. By continuing to use the site, you agree to this use of cookies and data.
  • In Czech Republic
  • List of Countries
  • For 7 days
  • Water Temperature
  • Satellite Maps
  • Weather Map
  • Weather Widgets
  • user-avatar
    Login

    Hourly Weather Shabanovo

    Today, 23 February, Saturday

    Time Temperature Precipitation Wind Pressure Humidity
    00:00 -10°C° 0 mm 2 mps 770 mmHg 85%
    01:00 -10°C° 0 mm 2 mps 770 mmHg 85%
    02:00 -10°C° 0 mm 2 mps 770 mmHg 85%
    03:00 -10°C° 0 mm 2 mps 769 mmHg 82%
    04:00 -9°C° 0 mm 2 mps 769 mmHg 80%
    05:00 -9°C° 0 mm 2 mps 768 mmHg 77%
    06:00 -9°C° 0 mm 3 mps 768 mmHg 74%
    07:00 -9°C° 0 mm 3 mps 768 mmHg 71%
    08:00 -9°C° 0 mm 4 mps 767 mmHg 66%
    09:00 -10°C° 0.3 mm 5 mps 767 mmHg 73%
    10:00 -10°C° 0.3 mm 5 mps 766 mmHg 81%
    11:00 -9°C° 0.3 mm 6 mps 765 mmHg 88%
    12:00 -9°C° 0.3 mm 6 mps 764 mmHg 87%
    13:00 -8°C° 0.3 mm 6 mps 763 mmHg 86%
    14:00 -8°C° 0 mm 6 mps 762 mmHg 85%
    15:00 -6°C° 0.4 mm 6 mps 762 mmHg 86%
    16:00 -4°C° 0.4 mm 5 mps 761 mmHg 88%
    17:00 -2°C° 0.4 mm 5 mps 761 mmHg 90%
    18:00 -2°C° 0.2 mm 5 mps 761 mmHg 90%
    19:00 -1°C° 0.2 mm 5 mps 760 mmHg 90%
    20:00 -1°C° 0.2 mm 5 mps 760 mmHg 91%
    21:00 -1°C° 0 mm 5 mps 760 mmHg 91%
    22:00 -1°C° 0 mm 4 mps 760 mmHg 92%
    23:00 -1°C° 0 mm 4 mps 760 mmHg 93%

    Tomorrow, 24 February, Sunday

    Time Temperature Precipitation Wind Pressure Humidity
    00:00 -1°C° 0 mm 4 mps 760 mmHg 93%
    01:00 0°C° 0 mm 3 mps 760 mmHg 94%
    02:00 0°C° 0 mm 3 mps 760 mmHg 94%
    03:00 0°C° 0 mm 3 mps 760 mmHg 95%
    04:00 0°C° 0 mm 3 mps 760 mmHg 95%
    05:00 0°C° 0 mm 3 mps 760 mmHg 95%
    06:00 0°C° 0 mm 3 mps 760 mmHg 95%
    07:00 0°C° 0 mm 3 mps 760 mmHg 95%
    08:00 0°C° 0 mm 3 mps 760 mmHg 95%
    09:00 0°C° 0 mm 3 mps 760 mmHg 95%
    10:00 +1°C° 0 mm 3 mps 760 mmHg 95%
    11:00 +1°C° 0 mm 3 mps 760 mmHg 95%
    12:00 +1°C° 0 mm 3 mps 759 mmHg 95%
    13:00 +1°C° 0 mm 3 mps 759 mmHg 95%
    14:00 +2°C° 0 mm 3 mps 759 mmHg 94%
    15:00 +1°C° 0 mm 3 mps 758 mmHg 95%
    16:00 +1°C° 0 mm 3 mps 758 mmHg 95%
    17:00 +1°C° 0 mm 3 mps 757 mmHg 95%
    18:00 0°C° 0 mm 4 mps 757 mmHg 94%
    19:00 0°C° 0 mm 4 mps 756 mmHg 94%
    20:00 0°C° 0 mm 5 mps 756 mmHg 93%
    21:00 0°C° 0 mm 5 mps 755 mmHg 93%
    22:00 0°C° 0 mm 4 mps 755 mmHg 92%
    23:00 0°C° 0 mm 4 mps 755 mmHg 92%

    Day after tomorrow, 25 February, Monday

    Time Temperature Precipitation Wind Pressure Humidity
    00:00 0°C° 0 mm 4 mps 755 mmHg 91%
    01:00 0°C° 0 mm 4 mps 755 mmHg 90%
    02:00 0°C° 0 mm 4 mps 755 mmHg 89%
    03:00 -1°C° 0 mm 4 mps 755 mmHg 89%
    04:00 -1°C° 0 mm 4 mps 754 mmHg 88%
    05:00 -2°C° 0 mm 4 mps 754 mmHg 88%
    06:00 -2°C° 0 mm 5 mps 754 mmHg 87%
    07:00 -2°C° 0 mm 5 mps 753 mmHg 86%
    08:00 -2°C° 0 mm 5 mps 753 mmHg 85%
    09:00 -1°C° 0 mm 5 mps 753 mmHg 83%
    10:00 0°C° 0 mm 5 mps 753 mmHg 81%
    11:00 -1°C° 0 mm 6 mps 752 mmHg 79%
    12:00 +1°C° 0 mm 6 mps 752 mmHg 79%
    13:00 +1°C° 0 mm 5 mps 752 mmHg 78%
    14:00 +1°C° 0 mm 5 mps 751 mmHg 77%
    15:00 +1°C° 0 mm 5 mps 751 mmHg 77%
    16:00 +1°C° 0 mm 5 mps 751 mmHg 77%
    17:00 +1°C° 0 mm 5 mps 751 mmHg 76%
    18:00 0°C° 0 mm 5 mps 752 mmHg 78%
    19:00 0°C° 0 mm 5 mps 752 mmHg 80%
    20:00 -1°C° 0 mm 5 mps 752 mmHg 82%
    21:00 -1°C° 0 mm 4 mps 752 mmHg 84%
    22:00 -2°C° 0 mm 4 mps 752 mmHg 86%
    23:00 -2°C° 0 mm 4 mps 752 mmHg 87%

    26 February, Tuesday

    Time Temperature Precipitation Wind Pressure Humidity
    00:00 -2°C° 0 mm 4 mps 752 mmHg 88%
    01:00 -2°C° 0 mm 4 mps 752 mmHg 89%
    02:00 -2°C° 0 mm 4 mps 751 mmHg 90%
    03:00 -2°C° 0.1 mm 4 mps 751 mmHg 89%
    04:00 -2°C° 0.1 mm 4 mps 750 mmHg 88%
    05:00 -2°C° 0.1 mm 5 mps 749 mmHg 87%
    06:00 -2°C° 0.3 mm 4 mps 749 mmHg 88%
    07:00 -2°C° 0.3 mm 4 mps 749 mmHg 89%
    08:00 -2°C° 0.3 mm 4 mps 749 mmHg 90%
    09:00 -1°C° 0.1 mm 4 mps 749 mmHg 89%
    10:00 -1°C° 0.1 mm 4 mps 749 mmHg 87%
    11:00 -1°C° 0.1 mm 4 mps 749 mmHg 86%
    12:00 -1°C° 0 mm 4 mps 750 mmHg 84%
    13:00 0°C° 0 mm 4 mps 751 mmHg 82%
    14:00 0°C° 0 mm 4 mps 751 mmHg 80%
    15:00 -1°C° 0 mm 4 mps 752 mmHg 80%
    16:00 -1°C° 0 mm 4 mps 752 mmHg 80%
    17:00 -1°C° 0 mm 4 mps 753 mmHg 81%
    18:00 -2°C° 0 mm 4 mps 754 mmHg 81%
    19:00 -2°C° 0 mm 4 mps 754 mmHg 81%
    20:00 -3°C° 0 mm 4 mps 755 mmHg 81%
    21:00 -4°C° 0 mm 3 mps 755 mmHg 83%
    22:00 -4°C° 0 mm 3 mps 755 mmHg 85%
    23:00 -4°C° 0 mm 2 mps 756 mmHg 88%

    27 February, Wednesday

    Time Temperature Precipitation Wind Pressure Humidity
    00:00 -5°C° 0 mm 2 mps 756 mmHg 89%
    01:00 -5°C° 0 mm 2 mps 756 mmHg 90%
    02:00 -5°C° 0 mm 2 mps 756 mmHg 90%
    03:00 -5°C° 0 mm 2 mps 755 mmHg 90%
    04:00 -3°C° 0 mm 1 mps 755 mmHg 90%
    05:00 -3°C° 0 mm 1 mps 755 mmHg 90%
    06:00 -4°C° 0 mm 2 mps 754 mmHg 89%
    07:00 -4°C° 0 mm 2 mps 753 mmHg 89%
    08:00 -3°C° 0 mm 2 mps 753 mmHg 88%
    09:00 -2°C° 0.1 mm 3 mps 752 mmHg 87%
    10:00 -2°C° 0.1 mm 4 mps 751 mmHg 87%
    11:00 -1°C° 0.1 mm 5 mps 750 mmHg 86%
    12:00 0°C° 0 mm 5 mps 750 mmHg 84%
    13:00 0°C° 0 mm 5 mps 750 mmHg 82%
    14:00 +1°C° 0 mm 5 mps 749 mmHg 80%
    15:00 0°C° 0 mm 4 mps 749 mmHg 82%
    16:00 0°C° 0 mm 4 mps 749 mmHg 84%
    17:00 0°C° 0 mm 3 mps 749 mmHg 87%
    18:00 0°C° 0 mm 3 mps 749 mmHg 88%
    19:00 -1°C° 0 mm 3 mps 748 mmHg 89%
    20:00 -1°C° 0 mm 3 mps 748 mmHg 91%
    21:00 -1°C° 0 mm 3 mps 747 mmHg 92%
    22:00 -1°C° 0 mm 3 mps 747 mmHg 93%
    23:00 -1°C° 0 mm 3 mps 746 mmHg 93%

    28 February, Thursday

    Time Temperature Precipitation Wind Pressure Humidity
    00:00 -1°C° 0 mm 3 mps 746 mmHg 94%
    01:00 -1°C° 0 mm 3 mps 745 mmHg 94%
    02:00 -2°C° 0 mm 3 mps 744 mmHg 95%
    03:00 -1°C° 0.1 mm 3 mps 743 mmHg 94%
    04:00 -1°C° 0.1 mm 3 mps 742 mmHg 93%
    05:00 -1°C° 0.1 mm 3 mps 741 mmHg 92%
    06:00 -1°C° 0.7 mm 3 mps 740 mmHg 93%
    07:00 -1°C° 0.7 mm 3 mps 738 mmHg 94%
    08:00 -1°C° 0.7 mm 3 mps 737 mmHg 94%
    09:00 -1°C° 0.2 mm 3 mps 736 mmHg 92%
    10:00 -1°C° 0.2 mm 4 mps 735 mmHg 90%
    11:00 -1°C° 0.2 mm 4 mps 733 mmHg 87%
    12:00 0°C° 0.4 mm 4 mps 733 mmHg 88%
    13:00 +1°C° 0.4 mm 3 mps 732 mmHg 90%
    14:00 +1°C° 0.4 mm 3 mps 731 mmHg 91%
    15:00 +1°C° 0.5 mm 3 mps 731 mmHg 91%
    16:00 +1°C° 0.5 mm 3 mps 731 mmHg 91%
    17:00 0°C° 0.5 mm 4 mps 731 mmHg 91%
    18:00 0°C° 0.2 mm 4 mps 731 mmHg 91%
    19:00 0°C° 0.2 mm 4 mps 731 mmHg 91%
    20:00 0°C° 0.2 mm 4 mps 731 mmHg 91%
    21:00 -1°C° 0.1 mm 4 mps 731 mmHg 91%
    22:00 -1°C° 0.1 mm 4 mps 732 mmHg 91%
    23:00 -1°C° 0.1 mm 4 mps 732 mmHg 90%
    Show more